| time (UTC) | temp F | wind direction | speed MPH | gust MPH | rain 1hr in | rain 24hr in | rain mn in | humidity % | barometer mb |
| 20260507044902 | 40 | 109 | 5.0 | 9.0 | 0.00 | 0.00 | 0.00 | 61 | 1015.3 |
| 20260507044403 | 41 | 104 | 5.0 | 8.0 | 0.00 | 0.00 | 0.00 | 61 | 1015.3 |
| 20260507043403 | 41 | 101 | 7.0 | 9.0 | 0.00 | 0.00 | 0.00 | 60 | 1015.4 |
| 20260507042903 | 42 | 101 | 7.0 | 8.0 | 0.00 | 0.00 | 0.00 | 59 | 1015.4 |
| 20260507042403 | 42 | 89 | 4.0 | 7.0 | 0.00 | 0.00 | 0.00 | 58 | 1015.4 |
| 20260507041903 | 42 | 80 | 5.0 | 8.0 | 0.00 | 0.00 | 0.00 | 58 | 1015.5 |
| 20260507041403 | 42 | 88 | 6.0 | 8.0 | 0.00 | 0.00 | 0.00 | 57 | 1015.5 |
| 20260507040902 | 43 | 97 | 7.0 | 8.0 | 0.00 | 0.00 | 0.00 | 56 | 1015.5 |
| 20260507040402 | 43 | 95 | 7.0 | 9.0 | 0.00 | 0.00 | 0.00 | 55 | 1015.6 |
| 20260507035403 | 43 | 87 | 6.0 | 9.0 | 0.00 | 0.00 | 0.00 | 55 | 1015.7 |
| 20260507034902 | 43 | 88 | 6.0 | 9.0 | 0.00 | 0.00 | 0.00 | 54 | 1015.8 |
| 20260507034403 | 43 | 81 | 6.0 | 8.0 | 0.00 | 0.00 | 0.00 | 53 | 1015.9 |
| 20260507033903 | 44 | 76 | 5.0 | 8.0 | 0.00 | 0.00 | 0.00 | 54 | 1015.9 |
| 20260507033403 | 44 | 69 | 3.0 | 5.0 | 0.00 | 0.00 | 0.00 | 53 | 1016.0 |
| 20260507032902 | 44 | 69 | 3.0 | 7.0 | 0.00 | 0.00 | 0.00 | 53 | 1016.1 |
| 20260507032403 | 44 | 85 | 6.0 | 8.0 | 0.00 | 0.00 | 0.00 | 54 | 1016.0 |
| 20260507031903 | 43 | 81 | 3.0 | 7.0 | 0.00 | 0.00 | 0.00 | 55 | 1016.0 |
| 20260507031403 | 43 | 64 | 3.0 | 3.0 | 0.00 | 0.00 | 0.00 | 54 | 1016.0 |
| 20260507030903 | 44 | 24 | 2.0 | 3.0 | 0.00 | 0.00 | 0.00 | 53 | 1016.0 |
| 20260507030402 | 44 | 24 | 2.0 | 3.0 | 0.00 | 0.00 | 0.00 | 53 | 1016.0 |
| 20260507025902 | 44 | 24 | 2.0 | 3.0 | 0.00 | 0.00 | 0.00 | 53 | 1016.2 |
| 20260507025402 | 44 | 24 | 2.0 | 3.0 | 0.00 | 0.00 | 0.00 | 52 | 1016.2 |
| 20260507024902 | 44 | 24 | 1.0 | 2.0 | 0.00 | 0.00 | 0.00 | 52 | 1016.2 |
| 20260507024403 | 45 | 24 | 1.0 | 3.0 | 0.00 | 0.00 | 0.00 | 52 | 1016.3 |
| 20260507023902 | 45 | 24 | 1.0 | 2.0 | 0.00 | 0.00 | 0.00 | 51 | 1016.2 |
| 20260507022402 | 46 | 24 | 2.0 | 3.0 | 0.00 | 0.00 | 0.00 | 49 | 1016.1 |
| 20260507021902 | 47 | 24 | 1.0 | 2.0 | 0.00 | 0.00 | 0.00 | 48 | 1016.0 |
| 20260507021404 | 47 | 24 | 1.0 | 2.0 | 0.00 | 0.00 | 0.00 | 48 | 1016.0 |
| 20260507020902 | 47 | 24 | 1.0 | 2.0 | 0.00 | 0.00 | 0.00 | 47 | 1016.0 |
| 20260507020402 | 47 | 24 | 1.0 | 1.0 | 0.00 | 0.00 | 0.00 | 47 | 1015.9 |
| 20260507015902 | 48 | 24 | 1.0 | 3.0 | 0.00 | 0.00 | 0.00 | 46 | 1015.9 |
| 20260507015402 | 48 | 24 | 2.0 | 3.0 | 0.00 | 0.00 | 0.00 | 46 | 1015.8 |
| 20260507014903 | 48 | 24 | 3.0 | 3.0 | 0.00 | 0.00 | 0.00 | 46 | 1015.9 |
| 20260507013903 | 49 | 0 | 2.0 | 3.0 | 0.00 | 0.00 | 0.00 | 45 | 1016.0 |
| 20260507013403 | 49 | 0 | 3.0 | 5.0 | 0.00 | 0.00 | 0.00 | 45 | 1015.9 |
| 20260507012903 | 49 | 0 | 3.0 | 5.0 | 0.00 | 0.00 | 0.00 | 44 | 1015.9 |
| 20260507012403 | 49 | 357 | 5.0 | 6.0 | 0.00 | 0.00 | 0.00 | 44 | 1015.9 |
| 20260507011903 | 50 | 1 | 3.0 | 7.0 | 0.00 | 0.00 | 0.00 | 44 | 1015.8 |
| 20260507011402 | 50 | 355 | 6.0 | 8.0 | 0.00 | 0.00 | 0.00 | 43 | 1015.8 |
| 20260507010403 | 50 | 357 | 5.0 | 12.0 | 0.00 | 0.00 | 0.00 | 43 | 1015.8 |
| 20260507005903 | 51 | 359 | 5.0 | 9.0 | 0.00 | 0.00 | 0.00 | 43 | 1015.8 |
| 20260507005402 | 51 | 348 | 7.0 | 12.0 | 0.00 | 0.00 | 0.00 | 42 | 1015.8 |
| 20260507004903 | 52 | 344 | 9.0 | 15.0 | 0.00 | 0.00 | 0.00 | 40 | 1015.8 |
| 20260507004402 | 52 | 298 | 9.0 | 12.0 | 0.00 | 0.00 | 0.00 | 40 | 1015.8 |
| 20260507003903 | 52 | 277 | 8.0 | 12.0 | 0.00 | 0.00 | 0.00 | 40 | 1015.8 |
| 20260507003402 | 52 | 289 | 9.0 | 12.0 | 0.00 | 0.00 | 0.00 | 40 | 1015.8 |
| 20260507002903 | 52 | 290 | 8.0 | 12.0 | 0.00 | 0.00 | 0.00 | 40 | 1015.7 |
| 20260507002402 | 52 | 296 | 9.0 | 12.0 | 0.00 | 0.00 | 0.00 | 40 | 1015.7 |
| 20260507001903 | 52 | 300 | 10.0 | 14.0 | 0.00 | 0.00 | 0.00 | 40 | 1015.8 |
| 20260507001403 | 52 | 314 | 9.0 | 12.0 | 0.00 | 0.00 | 0.00 | 40 | 1015.9 |
| 20260507000405 | 52 | 279 | 7.0 | 14.0 | 0.00 | 0.00 | 0.00 | 40 | 1016.0 |
| 20260506235902 | 52 | 293 | 8.0 | 10.0 | 0.00 | 0.00 | 0.00 | 41 | 1016.0 |
| 20260506235403 | 52 | 289 | 7.0 | 12.0 | 0.00 | 0.00 | 0.00 | 42 | 1016.0 |
| 20260506234902 | 52 | 282 | 8.0 | 12.0 | 0.00 | 0.00 | 0.00 | 41 | 1016.1 |
| 20260506234403 | 52 | 291 | 11.0 | 13.0 | 0.00 | 0.00 | 0.00 | 40 | 1016.1 |
| 20260506233403 | 52 | 293 | 10.0 | 16.0 | 0.00 | 0.00 | 0.00 | 41 | 1016.1 |
| 20260506232903 | 52 | 303 | 14.0 | 16.0 | 0.00 | 0.00 | 0.00 | 40 | 1016.1 |
| 20260506232402 | 52 | 301 | 12.0 | 16.0 | 0.00 | 0.00 | 0.00 | 41 | 1016.1 |
| 20260506231903 | 52 | 307 | 14.0 | 18.0 | 0.00 | 0.00 | 0.00 | 41 | 1016.2 |
| 20260506231403 | 52 | 325 | 9.0 | 14.0 | 0.00 | 0.00 | 0.00 | 41 | 1016.2 |
| 20260506230902 | 52 | 290 | 9.0 | 16.0 | 0.00 | 0.00 | 0.00 | 41 | 1016.2 |
| 20260506230402 | 51 | 313 | 12.0 | 14.0 | 0.00 | 0.00 | 0.00 | 42 | 1016.3 |
| 20260506225903 | 51 | 294 | 13.0 | 17.0 | 0.00 | 0.00 | 0.00 | 41 | 1016.2 |
| 20260506225403 | 52 | 297 | 13.0 | 17.0 | 0.00 | 0.00 | 0.00 | 41 | 1016.2 |
| 20260506224903 | 52 | 320 | 14.0 | 18.0 | 0.00 | 0.00 | 0.00 | 41 | 1016.3 |
| 20260506224403 | 51 | 307 | 10.0 | 14.0 | 0.00 | 0.00 | 0.00 | 41 | 1016.4 |
| 20260506223903 | 51 | 331 | 12.0 | 15.0 | 0.00 | 0.00 | 0.00 | 41 | 1016.4 |
| 20260506222903 | 51 | 327 | 13.0 | 18.0 | 0.00 | 0.00 | 0.00 | 41 | 1016.5 |
| 20260506222403 | 51 | 315 | 14.0 | 18.0 | 0.00 | 0.00 | 0.00 | 41 | 1016.5 |
| 20260506221903 | 51 | 305 | 14.0 | 20.0 | 0.00 | 0.00 | 0.00 | 41 | 1016.6 |
| 20260506221402 | 52 | 310 | 18.0 | 24.0 | 0.00 | 0.00 | 0.00 | 40 | 1016.6 |
| 20260506220902 | 52 | 300 | 12.0 | 20.0 | 0.00 | 0.00 | 0.00 | 41 | 1016.5 |
| 20260506220403 | 51 | 292 | 12.0 | 20.0 | 0.00 | 0.00 | 0.00 | 41 | 1016.6 |
| 20260506215403 | 52 | 289 | 16.0 | 20.0 | 0.00 | 0.00 | 0.00 | 41 | 1016.6 |
| 20260506214403 | 51 | 291 | 12.0 | 17.0 | 0.00 | 0.00 | 0.00 | 41 | 1016.9 |
| 20260506213903 | 51 | 315 | 13.0 | 22.0 | 0.00 | 0.00 | 0.00 | 43 | 1016.9 |
| 20260506212903 | 51 | 313 | 16.0 | 23.0 | 0.00 | 0.00 | 0.00 | 41 | 1016.9 |
| 20260506212402 | 51 | 317 | 16.0 | 20.0 | 0.00 | 0.00 | 0.00 | 42 | 1017.0 |
| 20260506211903 | 51 | 318 | 11.0 | 20.0 | 0.00 | 0.00 | 0.00 | 42 | 1017.1 |
| 20260506211403 | 51 | 317 | 13.0 | 20.0 | 0.00 | 0.00 | 0.00 | 42 | 1017.2 |
| 20260506210902 | 51 | 299 | 20.0 | 26.0 | 0.00 | 0.00 | 0.00 | 41 | 1017.3 |
| 20260506210403 | 51 | 300 | 14.0 | 21.0 | 0.00 | 0.00 | 0.00 | 41 | 1017.4 |
| 20260506205903 | 51 | 272 | 14.0 | 26.0 | 0.00 | 0.00 | 0.00 | 41 | 1017.4 |
| 20260506205403 | 51 | 285 | 14.0 | 20.0 | 0.00 | 0.00 | 0.00 | 42 | 1017.4 |
| 20260506204403 | 51 | 294 | 15.0 | 25.0 | 0.00 | 0.00 | 0.00 | 41 | 1017.7 |
| 20260506203903 | 52 | 290 | 17.0 | 22.0 | 0.00 | 0.00 | 0.00 | 41 | 1017.7 |
| 20260506203403 | 51 | 301 | 12.0 | 21.0 | 0.00 | 0.00 | 0.00 | 42 | 1017.9 |
| 20260506201403 | 50 | 287 | 18.0 | 26.0 | 0.00 | 0.00 | 0.00 | 42 | 1018.0 |
| 20260506200903 | 50 | 284 | 18.0 | 24.0 | 0.00 | 0.00 | 0.00 | 43 | 1017.9 |
| 20260506200402 | 50 | 293 | 14.0 | 20.0 | 0.00 | 0.00 | 0.00 | 43 | 1018.1 |
| 20260506195903 | 51 | 298 | 13.0 | 22.0 | 0.00 | 0.00 | 0.00 | 43 | 1018.1 |
| 20260506194903 | 49 | 290 | 17.0 | 22.0 | 0.00 | 0.00 | 0.00 | 44 | 1018.2 |
| 20260506194403 | 49 | 283 | 16.0 | 20.0 | 0.00 | 0.00 | 0.00 | 43 | 1018.2 |
| 20260506193902 | 49 | 286 | 14.0 | 23.0 | 0.00 | 0.00 | 0.00 | 45 | 1018.2 |
| 20260506193403 | 48 | 291 | 16.0 | 26.0 | 0.00 | 0.00 | 0.00 | 45 | 1018.2 |
| 20260506192903 | 48 | 295 | 13.0 | 20.0 | 0.00 | 0.00 | 0.00 | 45 | 1018.3 |
| 20260506191902 | 50 | 297 | 17.0 | 23.0 | 0.00 | 0.00 | 0.00 | 43 | 1018.6 |
| 20260506191403 | 50 | 290 | 17.0 | 24.0 | 0.00 | 0.00 | 0.00 | 44 | 1018.5 |
| 20260506190903 | 48 | 286 | 12.0 | 24.0 | 0.00 | 0.00 | 0.00 | 45 | 1018.6 |
| 20260506190402 | 48 | 289 | 15.0 | 20.0 | 0.00 | 0.00 | 0.00 | 46 | 1018.6 |
| 20260506185903 | 48 | 302 | 18.0 | 23.0 | 0.00 | 0.00 | 0.00 | 45 | 1018.7 |
| 20260506185403 | 48 | 259 | 16.0 | 23.0 | 0.00 | 0.00 | 0.00 | 46 | 1018.6 |
| 20260506184903 | 47 | 298 | 16.0 | 22.0 | 0.00 | 0.00 | 0.00 | 46 | 1018.7 |
| 20260506184403 | 48 | 316 | 12.0 | 21.0 | 0.00 | 0.00 | 0.00 | 47 | 1018.9 |
| 20260506183902 | 48 | 324 | 20.0 | 26.0 | 0.00 | 0.00 | 0.00 | 47 | 1018.9 |
| 20260506183403 | 47 | 320 | 20.0 | 26.0 | 0.00 | 0.00 | 0.00 | 46 | 1018.9 |
| 20260506182903 | 48 | 309 | 17.0 | 21.0 | 0.00 | 0.00 | 0.00 | 47 | 1018.8 |
| 20260506181903 | 46 | 318 | 15.0 | 26.0 | 0.00 | 0.00 | 0.00 | 49 | 1018.8 |
| 20260506181403 | 47 | 315 | 21.0 | 24.0 | 0.00 | 0.00 | 0.00 | 48 | 1018.8 |
| 20260506180403 | 47 | 326 | 17.0 | 21.0 | 0.00 | 0.00 | 0.00 | 47 | 1018.8 |
| 20260506175403 | 47 | 323 | 13.0 | 22.0 | 0.00 | 0.00 | 0.00 | 48 | 1018.9 |
| 20260506174902 | 47 | 313 | 18.0 | 24.0 | 0.00 | 0.00 | 0.00 | 47 | 1019.0 |
| 20260506174403 | 47 | 306 | 16.0 | 22.0 | 0.00 | 0.00 | 0.00 | 48 | 1018.9 |
| 20260506173403 | 46 | 307 | 17.0 | 22.0 | 0.00 | 0.00 | 0.00 | 48 | 1019.0 |
| 20260506172903 | 46 | 300 | 17.0 | 24.0 | 0.00 | 0.00 | 0.00 | 49 | 1019.1 |
| 20260506171903 | 45 | 290 | 17.0 | 24.0 | 0.00 | 0.00 | 0.00 | 48 | 1019.2 |
| 20260506171403 | 46 | 311 | 20.0 | 26.0 | 0.00 | 0.00 | 0.00 | 49 | 1019.0 |
| 20260506170902 | 45 | 313 | 16.0 | 25.0 | 0.00 | 0.00 | 0.00 | 50 | 1019.1 |
| 20260506165902 | 45 | 311 | 15.0 | 20.0 | 0.00 | 0.00 | 0.00 | 51 | 1019.2 |
| 20260506165403 | 45 | 296 | 16.0 | 23.0 | 0.00 | 0.00 | 0.00 | 51 | 1019.1 |
| 20260506164903 | 45 | 291 | 17.0 | 22.0 | 0.00 | 0.00 | 0.00 | 50 | 1019.1 |
| 20260506164402 | 45 | 305 | 21.0 | 26.0 | 0.00 | 0.00 | 0.00 | 50 | 1019.1 |
| 20260506163903 | 45 | 299 | 18.0 | 22.0 | 0.00 | 0.00 | 0.00 | 50 | 1019.1 |
| 20260506163403 | 45 | 294 | 17.0 | 25.0 | 0.00 | 0.00 | 0.00 | 50 | 1019.1 |
| 20260506162903 | 44 | 317 | 16.0 | 25.0 | 0.00 | 0.00 | 0.00 | 51 | 1019.1 |
| 20260506162402 | 44 | 288 | 16.0 | 24.0 | 0.00 | 0.00 | 0.00 | 51 | 1019.1 |
| 20260506161903 | 44 | 294 | 16.0 | 21.0 | 0.00 | 0.00 | 0.00 | 51 | 1019.1 |
| 20260506161403 | 45 | 323 | 19.0 | 24.0 | 0.00 | 0.00 | 0.00 | 50 | 1019.1 |
| 20260506160403 | 44 | 304 | 16.0 | 22.0 | 0.00 | 0.00 | 0.00 | 53 | 1019.1 |
| 20260506155903 | 44 | 329 | 17.0 | 23.0 | 0.00 | 0.00 | 0.00 | 52 | 1019.2 |
| 20260506155402 | 44 | 287 | 12.0 | 22.0 | 0.00 | 0.00 | 0.00 | 53 | 1019.1 |
| 20260506154903 | 44 | 304 | 18.0 | 23.0 | 0.00 | 0.00 | 0.00 | 52 | 1019.2 |
| 20260506154403 | 44 | 324 | 16.0 | 22.0 | 0.00 | 0.00 | 0.00 | 53 | 1019.2 |
| 20260506153902 | 44 | 300 | 20.0 | 26.0 | 0.00 | 0.00 | 0.00 | 52 | 1019.2 |
| 20260506153403 | 44 | 306 | 16.0 | 26.0 | 0.00 | 0.00 | 0.00 | 52 | 1019.2 |
| 20260506152902 | 44 | 302 | 17.0 | 25.0 | 0.00 | 0.00 | 0.00 | 53 | 1019.1 |
| 20260506152403 | 44 | 305 | 16.0 | 22.0 | 0.00 | 0.00 | 0.00 | 54 | 1019.2 |
| 20260506151903 | 44 | 300 | 14.0 | 18.0 | 0.00 | 0.00 | 0.00 | 54 | 1019.2 |
| 20260506151404 | 43 | 315 | 13.0 | 21.0 | 0.00 | 0.00 | 0.00 | 56 | 1019.4 |
| 20260506150903 | 43 | 305 | 14.0 | 20.0 | 0.00 | 0.00 | 0.00 | 55 | 1019.3 |
| 20260506150403 | 43 | 310 | 17.0 | 24.0 | 0.00 | 0.00 | 0.00 | 55 | 1019.3 |
| 20260506145903 | 43 | 298 | 14.0 | 20.0 | 0.00 | 0.00 | 0.00 | 57 | 1019.3 |
| 20260506144903 | 43 | 316 | 16.0 | 20.0 | 0.00 | 0.00 | 0.00 | 54 | 1019.2 |
| 20260506144403 | 43 | 287 | 16.0 | 21.0 | 0.00 | 0.00 | 0.00 | 54 | 1019.0 |
| 20260506143402 | 42 | 325 | 12.0 | 18.0 | 0.00 | 0.00 | 0.00 | 59 | 1019.1 |
| 20260506142402 | 42 | 312 | 14.0 | 18.0 | 0.00 | 0.00 | 0.00 | 59 | 1019.1 |
| 20260506141902 | 42 | 321 | 16.0 | 20.0 | 0.00 | 0.00 | 0.00 | 60 | 1019.1 |
| 20260506141403 | 42 | 305 | 13.0 | 20.0 | 0.00 | 0.00 | 0.00 | 59 | 1019.1 |
| 20260506140903 | 41 | 313 | 12.0 | 17.0 | 0.00 | 0.00 | 0.00 | 61 | 1019.0 |
| 20260506140403 | 41 | 306 | 13.0 | 17.0 | 0.00 | 0.00 | 0.00 | 60 | 1018.9 |
| 20260506135902 | 41 | 322 | 9.0 | 12.0 | 0.00 | 0.00 | 0.00 | 63 | 1018.8 |
| 20260506135404 | 41 | 318 | 7.0 | 12.0 | 0.00 | 0.00 | 0.00 | 62 | 1018.8 |
| 20260506134903 | 41 | 282 | 9.0 | 13.0 | 0.00 | 0.00 | 0.00 | 63 | 1018.9 |
| 20260506134402 | 40 | 317 | 9.0 | 12.0 | 0.00 | 0.00 | 0.00 | 63 | 1019.0 |
| 20260506132402 | 40 | 308 | 10.0 | 12.0 | 0.00 | 0.00 | 0.00 | 62 | 1019.2 |
| 20260506131903 | 40 | 312 | 11.0 | 14.0 | 0.00 | 0.00 | 0.00 | 62 | 1019.1 |
| 20260506131403 | 40 | 321 | 9.0 | 12.0 | 0.00 | 0.00 | 0.00 | 65 | 1019.0 |
| 20260506130903 | 39 | 327 | 8.0 | 12.0 | 0.00 | 0.00 | 0.00 | 65 | 1018.9 |
| 20260506130403 | 39 | 315 | 10.0 | 12.0 | 0.00 | 0.00 | 0.00 | 67 | 1019.0 |
| 20260506125903 | 39 | 306 | 9.0 | 12.0 | 0.00 | 0.00 | 0.00 | 70 | 1019.0 |
| 20260506125403 | 38 | 301 | 7.0 | 9.0 | 0.00 | 0.00 | 0.00 | 71 | 1018.9 |
| 20260506124403 | 38 | 282 | 2.0 | 3.0 | 0.00 | 0.00 | 0.00 | 74 | 1018.5 |
| 20260506123903 | 37 | 282 | 2.0 | 3.0 | 0.00 | 0.00 | 0.00 | 75 | 1018.5 |
| 20260506123403 | 37 | 282 | 2.0 | 3.0 | 0.00 | 0.00 | 0.00 | 76 | 1018.5 |
| 20260506122903 | 37 | 282 | 2.0 | 3.0 | 0.00 | 0.00 | 0.00 | 76 | 1018.5 |
| 20260506122403 | 37 | 282 | 2.0 | 3.0 | 0.00 | 0.00 | 0.00 | 76 | 1018.5 |
| 20260506121403 | 36 | 282 | 6.0 | 8.0 | 0.00 | 0.00 | 0.00 | 76 | 1018.4 |
| 20260506120403 | 36 | 287 | 7.0 | 9.0 | 0.00 | 0.00 | 0.00 | 76 | 1018.3 |
| 20260506115903 | 36 | 284 | 6.0 | 8.0 | 0.00 | 0.00 | 0.00 | 76 | 1018.2 |
| 20260506115403 | 35 | 282 | 6.0 | 8.0 | 0.00 | 0.00 | 0.00 | 75 | 1018.1 |
| 20260506114903 | 35 | 281 | 5.0 | 8.0 | 0.00 | 0.00 | 0.00 | 76 | 1018.0 |
| 20260506114403 | 35 | 265 | 5.0 | 6.0 | 0.00 | 0.00 | 0.00 | 77 | 1017.8 |
| 20260506113903 | 35 | 265 | 5.0 | 6.0 | 0.00 | 0.00 | 0.00 | 76 | 1017.7 |
| 20260506113403 | 35 | 265 | 3.0 | 6.0 | 0.00 | 0.00 | 0.00 | 77 | 1017.7 |
| 20260506112903 | 35 | 265 | 5.0 | 7.0 | 0.00 | 0.00 | 0.00 | 77 | 1017.8 |
| 20260506112403 | 35 | 277 | 5.0 | 6.0 | 0.00 | 0.00 | 0.00 | 77 | 1017.7 |
| 20260506111902 | 35 | 276 | 5.0 | 7.0 | 0.00 | 0.00 | 0.00 | 77 | 1017.7 |
| 20260506110903 | 35 | 273 | 5.0 | 6.0 | 0.00 | 0.00 | 0.00 | 77 | 1017.7 |
| 20260506105903 | 35 | 273 | 5.0 | 7.0 | 0.00 | 0.00 | 0.00 | 77 | 1017.5 |
| 20260506105403 | 35 | 275 | 5.0 | 8.0 | 0.00 | 0.00 | 0.00 | 78 | 1017.5 |
| 20260506104903 | 34 | 271 | 5.0 | 7.0 | 0.00 | 0.00 | 0.00 | 78 | 1017.5 |
| 20260506104403 | 34 | 268 | 6.0 | 8.0 | 0.00 | 0.00 | 0.00 | 78 | 1017.6 |
| 20260506103403 | 34 | 258 | 5.0 | 8.0 | 0.00 | 0.00 | 0.00 | 78 | 1017.5 |
| 20260506102903 | 33 | 266 | 6.0 | 8.0 | 0.00 | 0.00 | 0.00 | 78 | 1017.5 |
| 20260506102403 | 33 | 273 | 6.0 | 7.0 | 0.00 | 0.00 | 0.00 | 77 | 1017.4 |
| 20260506101903 | 33 | 273 | 5.0 | 7.0 | 0.00 | 0.00 | 0.00 | 77 | 1017.5 |
| 20260506101403 | 33 | 273 | 5.0 | 6.0 | 0.00 | 0.00 | 0.00 | 77 | 1017.3 |
| 20260506100903 | 33 | 273 | 3.0 | 6.0 | 0.00 | 0.00 | 0.00 | 76 | 1017.2 |
| 20260506100403 | 33 | 273 | 3.0 | 6.0 | 0.00 | 0.00 | 0.00 | 77 | 1017.1 |
| 20260506095903 | 33 | 273 | 5.0 | 7.0 | 0.00 | 0.00 | 0.00 | 76 | 1017.2 |
| 20260506095403 | 33 | 273 | 5.0 | 7.0 | 0.00 | 0.00 | 0.00 | 77 | 1017.4 |
| 20260506094903 | 33 | 270 | 5.0 | 7.0 | 0.00 | 0.00 | 0.00 | 77 | 1017.3 |
| 20260506094403 | 32 | 270 | 5.0 | 6.0 | 0.00 | 0.00 | 0.00 | 77 | 1017.2 |
| 20260506093903 | 33 | 270 | 6.0 | 7.0 | 0.00 | 0.00 | 0.00 | 76 | 1017.2 |
| 20260506093404 | 33 | 289 | 5.0 | 7.0 | 0.00 | 0.00 | 0.00 | 76 | 1017.2 |
| 20260506092903 | 33 | 294 | 5.0 | 7.0 | 0.00 | 0.00 | 0.00 | 76 | 1017.1 |
| 20260506092403 | 34 | 294 | 3.0 | 5.0 | 0.00 | 0.00 | 0.00 | 74 | 1016.8 |
| 20260506091903 | 34 | 294 | 2.0 | 3.0 | 0.00 | 0.00 | 0.00 | 74 | 1016.5 |
| 20260506091404 | 34 | 294 | 2.0 | 3.0 | 0.00 | 0.00 | 0.00 | 74 | 1016.5 |
| 20260506090903 | 34 | 294 | 2.0 | 3.0 | 0.00 | 0.00 | 0.00 | 75 | 1016.5 |
| 20260506090403 | 34 | 294 | 3.0 | 3.0 | 0.00 | 0.00 | 0.00 | 75 | 1016.7 |
| 20260506085903 | 34 | 294 | 3.0 | 3.0 | 0.00 | 0.00 | 0.00 | 75 | 1016.6 |
| 20260506085403 | 33 | 294 | 3.0 | 5.0 | 0.00 | 0.00 | 0.00 | 75 | 1016.6 |
| 20260506084903 | 33 | 294 | 3.0 | 5.0 | 0.00 | 0.00 | 0.00 | 75 | 1016.6 |
| 20260506083903 | 33 | 294 | 4.0 | 5.0 | 0.00 | 0.00 | 0.00 | 74 | 1016.8 |
| 20260506083403 | 33 | 294 | 3.0 | 5.0 | 0.00 | 0.00 | 0.00 | 74 | 1016.8 |
| 20260506082903 | 33 | 294 | 6.0 | 8.0 | 0.00 | 0.00 | 0.00 | 72 | 1016.8 |
| 20260506081403 | 34 | 324 | 6.0 | 8.0 | 0.00 | 0.00 | 0.00 | 72 | 1016.3 |
| 20260506080903 | 34 | 324 | 5.0 | 6.0 | 0.00 | 0.00 | 0.00 | 71 | 1016.1 |
| 20260506080403 | 34 | 324 | 5.0 | 6.0 | 0.00 | 0.00 | 0.00 | 69 | 1016.2 |
| 20260506073403 | 36 | 327 | 6.0 | 8.0 | 0.00 | 0.00 | 0.00 | 67 | 1016.2 |
| 20260506071403 | 35 | 343 | 5.0 | 5.0 | 0.00 | 0.00 | 0.00 | 69 | 1016.2 |
| 20260506070903 | 35 | 343 | 5.0 | 5.0 | 0.00 | 0.00 | 0.00 | 69 | 1016.4 |
| 20260506062403 | 36 | 345 | 6.0 | 9.0 | 0.00 | 0.00 | 0.00 | 66 | 1016.4 |
| 20260506061903 | 36 | 339 | 6.0 | 9.0 | 0.00 | 0.00 | 0.00 | 66 | 1016.2 |
| 20260506061403 | 36 | 336 | 6.0 | 8.0 | 0.00 | 0.00 | 0.00 | 66 | 1016.2 |
| 20260506060903 | 37 | 341 | 6.0 | 9.0 | 0.00 | 0.00 | 0.00 | 65 | 1016.1 |
| 20260506051403 | 37 | 339 | 6.0 | 8.0 | 0.00 | 0.00 | 0.00 | 63 | 1015.8 |
| 20260506050903 | 38 | 339 | 6.0 | 8.0 | 0.00 | 0.00 | 0.00 | 63 | 1015.7 |
| 20260506050402 | 38 | 339 | 6.0 | 8.0 | 0.00 | 0.00 | 0.00 | 62 | 1015.7 |